Flag for U.S.A. Weather past 2 weeks in Daytona Beach, Florida, U.S.A.

Now
78 °F

Broken clouds.


Feels Like: 80 °F
Forecast: 73 / 84 °F
Wind: 10 mph from South

Location: Daytona Beach Regional Airport

Current Time: Aug 2, 2015 at 6:38:19 PM

Latest Report: Aug 2, 2015 at 5:53 PM


Visibility: 10 mi

Pressure: 29.92 "Hg

Humidity: 79%

Dew point: 71 °F

Location of Daytona BeachLocation

Historic Weather in Daytona Beach — Graph

°F

Daytona Beach temperature yesterday

Maximum temperature yesterday: 91 °F (at 12:53 PM)
Minimum temperature yesterday: 74 °F (at 9:53 PM)
Average temperature yesterday: 78 °F

Past Weeks' High & Low Weather Summary

 TemperatureHumidityPressure
High93 °F (Jul 19, 3:53 PM)97% (Jul 18, 5:53 PM)30.05 "Hg (Jul 18, 5:53 PM)
Low73 °F (Aug 2, 1:53 AM)48% (Jul 29, 2:53 PM)29.83 "Hg (Jul 26, 4:53 AM)
Average81 °F82%29.95 "Hg
* Reported Jul 18 4:53 PM — Aug 2 4:53 PM, Daytona Beach, Weather by CustomWeather, © 2015

Note: Actual official high and low records may vary slightly from our data, if they occured in-between our weather recording intervals... More about our weather records

Advertising

Daytona Beach weather history for previous 24 hours

 ConditionsComfort  
Time TempWeatherWind HumidityBarometerVisibility
4:53 PM
Sun, Aug 2
77 °FCloudy.13 mph77%29.93 "Hg10 mi
3:53 PM79 °FBroken clouds.10 mph67%29.93 "Hg10 mi
2:53 PM79 °FMostly cloudy.22 mph72%29.95 "Hg8 mi
1:53 PM86 °FBroken clouds.12 mph67%29.94 "Hg9 mi
12:53 PM85 °FBroken clouds.10 mph65%29.95 "Hg10 mi
11:53 AM83 °FPartly sunny.14 mph70%29.95 "Hg10 mi
10:53 AM85 °FBroken clouds.9 mph68%29.94 "Hg9 mi
9:53 AM82 °FPassing clouds.10 mph72%29.94 "Hg10 mi
8:53 AM76 °FBroken clouds.6 mph85%29.95 "Hg10 mi
7:53 AM74 °FBroken clouds.6 mph88%29.93 "Hg9 mi
6:53 AM73 °FPartly cloudy.7 mph90%29.92 "Hg10 mi
5:53 AM73 °FPartly cloudy.6 mph90%29.91 "Hg10 mi
4:53 AM73 °FPartly cloudy.6 mph90%29.90 "Hg10 mi
3:53 AM73 °FPartly cloudy.3 mph88%29.91 "Hg10 mi
2:53 AM74 °FPartly cloudy.7 mph85%29.93 "Hg10 mi
1:53 AM73 °FPartly cloudy.8 mph90%29.96 "Hg10 mi
12:53 AM74 °FMostly cloudy.7 mph88%29.97 "Hg10 mi
11:53 PM
Sat, Aug 1
74 °FMostly cloudy.8 mph91%29.97 "Hg10 mi
10:53 PM74 °FLight rain. Mostly cloudy.7 mph94%29.98 "Hg8 mi
9:53 PM74 °FMostly cloudy.8 mph94%29.96 "Hg10 mi
8:53 PM75 °FMore clouds than sun.5 mph94%29.94 "Hg10 mi
7:53 PM75 °FCloudy.5 mph90%29.93 "Hg10 mi
6:53 PM75 °FLight rain. Cloudy.6 mph94%29.93 "Hg10 mi
Weather by CustomWeather, © 2015

See weather overviewHow to use our weather pages